Date_and_time,latitude,longitude,wind_speed,RelWindDirFrom,WindDirFrom,air_pressure,air_temperature,relative_humidity,Temp,platform_speed_wrt_ground,air_pressure_at_mean_sea_level,platform_orientation
2018-08-12 23:50,53.7486666666667,-98.0785533333333,18.9,25.4,41,990.29,13.4,90,19.64,0.0,1016.83,103.0
2018-08-13 00:00,53.7486116666667,-98.0784616666667,15.3,21.8,26,991.01,13.1,90,19.60,0.0,1017.59,52.7
2018-08-13 00:10,53.7486183333333,-98.0784966666667,18.2,26.5,31,990.00,13.0,90,19.55,0.0,1016.57,52.7
2018-08-13 00:20,53.7486416666667,-98.0784916666667,16.4,23.4,35,989.89,13.0,90,19.52,0.0,1016.46,52.7
2018-08-13 00:30,53.7486216666667,-98.0784883333333,16.7,25.5,34,989.75,13.0,90,19.48,0.0,1016.33,52.7
2018-08-13 00:40,53.74858,-98.0784133333333,22.1,28.4,48,988.08,13.1,89,19.45,0.0,1014.62,52.7
2018-08-13 00:50,53.7486416666667,-98.0785333333333,18.7,26.3,32,989.01,13.0,89,19.44,0.0,1015.57,52.7
2018-08-13 01:00,53.748605,-98.0784233333333,21.9,31.6,44,988.01,13.2,90,19.42,0.0,1014.53,44.3
2018-08-13 01:10,53.74864,-98.078545,19.1,27.0,34,989.20,13.1,89,19.41,0.0,1015.76,44.3
2018-08-13 01:20,53.748605,-98.0784766666667,16.0,22.4,31,989.90,13.0,91,19.41,0.0,1016.51,44.3
2018-08-13 01:30,53.748625,-98.078505,17.9,25.0,31,989.63,12.9,92,19.39,0.0,1016.24,44.3
2018-08-13 01:40,53.7485933333333,-98.0783966666667,17.4,24.3,33,989.73,12.7,93,19.38,0.0,1016.36,44.3
2018-08-13 01:50,53.748605,-98.0784266666667,15.7,22.4,32,990.13,12.7,93,19.35,0.0,1016.78,44.3
2018-08-13 02:00,53.7486083333333,-98.0784483333333,17.4,23.5,36,989.26,12.7,94,19.36,0.0,1015.89,303.1
2018-08-13 02:10,53.7486583333333,-98.07852,21.9,26.3,52,987.58,12.9,95,19.29,0.0,1014.16,303.1
2018-08-13 02:20,53.7487233333333,-98.078635,21.8,28.8,59,986.80,12.6,96,19.25,0.0,1013.37,303.1
2018-08-13 02:30,53.748675,-98.0785766666667,22.1,29.1,54,986.45,12.6,96,19.23,0.0,1013.01,303.1
2018-08-13 02:40,53.7487133333333,-98.0786033333333,20.7,28.2,58,986.68,12.5,97,19.20,0.0,1013.25,303.1
2018-08-13 02:50,53.74863,-98.0784916666667,19.9,26.2,73,986.22,12.4,97,19.17,0.0,1012.77,303.1
2018-08-13 03:00,53.748725,-98.07864,19.2,27.8,72,985.79,12.4,97,19.14,0.0,1012.34,313.5
2018-08-13 03:10,53.7487366666667,-98.07864,20.3,27.8,78,984.43,12.3,97,19.11,0.0,1010.95,313.5
2018-08-13 03:20,53.7488633333333,-98.078705,22.7,30.9,89,983.50,12.3,96,19.07,0.0,1010.00,313.5
2018-08-13 03:30,53.7487616666667,-98.07866,20.8,34.9,90,982.68,12.3,96,19.06,0.0,1009.17,313.5
2018-08-13 03:40,53.7487516666667,-98.0786433333333,15.5,24.3,76,983.27,12.4,96,19.02,0.0,1009.77,313.5
2018-08-13 03:50,53.74873,-98.0786516666667,17.7,26.8,42,984.20,12.6,94,19.02,0.0,1010.71,313.5
2018-08-13 04:00,53.7486983333333,-98.078605,18.8,24.7,48,984.35,13.1,93,19.02,0.0,1010.85,312.6
2018-08-13 04:10,53.74865,-98.0785333333333,17.7,25.0,45,984.85,13.1,92,19.04,0.0,1011.37,312.6
2018-08-13 04:20,53.7486983333333,-98.07856,17.1,24.4,47,985.30,13.1,93,19.10,0.0,1011.83,312.6
2018-08-13 04:30,53.7486816666667,-98.0785533333333,17.0,22.2,47,985.94,13.1,92,19.20,0.0,1012.49,312.6
2018-08-13 04:40,53.7485616666667,-98.0783566666667,17.5,23.6,40,985.87,13.0,93,19.29,0.1,1012.43,312.6
2018-08-13 04:50,53.7485816666667,-98.07839,16.9,22.0,38,986.36,12.8,93,19.31,0.0,1012.94,312.6
2018-08-13 05:00,53.7486316666667,-98.078505,16.0,21.7,42,987.20,13.0,93,19.25,0.0,1013.80,302.1
2018-08-13 05:10,53.7486283333333,-98.0784933333333,15.4,24.1,39,987.76,12.9,92,19.26,0.0,1014.37,302.1
2018-08-13 05:20,53.7486066666667,-98.0784633333333,13.3,18.0,41,988.15,12.9,93,19.29,0.0,1014.78,302.1
2018-08-13 05:30,53.7486016666667,-98.0784383333333,13.3,18.9,46,988.10,13.0,93,19.32,0.0,1014.72,302.1
2018-08-13 05:40,53.7485916666667,-98.0784183333333,14.7,21.9,41,987.28,13.0,94,19.31,0.0,1013.86,302.1
2018-08-13 05:50,53.7486516666667,-98.0785916666667,17.8,26.5,40,986.33,12.8,94,19.27,0.0,1012.88,302.1
2018-08-13 06:00,53.748785,-98.078705,21.5,27.5,54,983.88,12.8,96,19.21,0.1,1010.36,332.8
2018-08-13 06:10,53.7486683333333,-98.078615,22.3,29.2,56,982.75,12.4,97,19.27,0.0,1009.22,332.8
2018-08-13 06:20,53.7486066666667,-98.0785216666667,24.9,32.3,49,982.61,12.5,97,19.53,0.0,1009.08,332.8
2018-08-13 06:30,53.7486633333333,-98.0785733333333,21.6,25.7,38,984.17,12.8,96,19.62,0.0,1010.66,332.8
2018-08-13 06:40,53.74876,-98.0787,22.5,29.7,43,983.95,12.8,95,19.61,0.0,1010.44,332.8
2018-08-13 06:50,53.7487116666667,-98.07867,21.1,26.7,49,984.26,12.9,95,19.57,0.0,1010.75,332.8
2018-08-13 07:00,53.7486183333333,-98.0788116666667,20.6,28.9,49,984.90,13.0,94,19.51,0.0,1011.41,238.7
2018-08-13 07:10,53.7486333333333,-98.0788366666667,19.4,25.2,48,985.48,13.0,93,19.43,0.0,1012.00,238.7
2018-08-13 07:20,53.7485716666667,-98.078775,20.9,29.5,48,984.72,13.1,95,19.40,0.0,1011.21,238.7
2018-08-13 07:30,53.7485383333333,-98.078735,20.3,28.1,54,984.13,12.8,95,19.38,0.0,1010.63,238.7
2018-08-13 07:40,53.748555,-98.078735,19.3,29.3,39,984.86,12.8,95,19.36,0.0,1011.38,238.7
2018-08-13 07:50,53.7486033333333,-98.0788133333333,19.2,27.7,54,985.16,12.8,96,19.35,0.0,1011.69,238.7
2018-08-13 08:00,53.748505,-98.0787133333333,21.2,27.8,50,984.55,12.8,96,19.34,0.0,1011.08,223.5
2018-08-13 08:10,53.7485733333333,-98.0787483333333,22.3,29.1,42,984.59,13.0,95,19.33,0.0,1011.11,223.5
2018-08-13 08:20,53.7484466666667,-98.0785483333333,21.7,28.0,35,984.43,13.0,94,19.34,0.1,1010.93,223.5
2018-08-13 08:30,53.7484683333333,-98.078605,20.5,27.8,33,984.06,12.8,96,19.35,0.0,1010.56,223.5
2018-08-13 08:40,53.7486366666667,-98.078915,21.2,27.9,43,983.57,12.8,97,19.35,0.1,1010.05,223.5
2018-08-13 08:50,53.748655,-98.07911,22.2,29.5,61,982.44,12.6,96,19.34,0.0,1008.89,223.5
2018-08-13 09:00,53.7485283333333,-98.0790266666667,19.7,27.0,69,981.87,12.4,96,19.35,0.0,1008.32,216.1
2018-08-13 09:10,53.7483733333333,-98.0787616666667,16.1,25.2,56,983.06,12.4,96,19.46,0.1,1009.54,216.1
2018-08-13 09:20,53.748415,-98.0788916666667,17.8,23.5,38,983.94,12.8,95,19.50,0.0,1010.44,216.1
2018-08-13 09:30,53.7484083333333,-98.0788733333333,19.6,25.6,45,983.24,13.0,95,19.47,0.0,1009.71,216.1
2018-08-13 09:40,53.7483483333333,-98.0787433333333,17.9,27.6,36,983.10,12.9,94,19.49,0.0,1009.57,216.1
2018-08-13 09:50,53.74843,-98.07892,15.5,22.0,38,983.55,12.8,96,19.45,0.0,1010.03,216.1
2018-08-13 10:00,53.7484016666667,-98.0788566666667,16.3,22.4,38,983.44,12.7,96,19.29,0.0,1009.92,185.3
2018-08-13 10:10,53.7483583333333,-98.07873,16.6,24.1,43,983.38,12.9,97,19.24,0.0,1009.84,185.3
2018-08-13 10:20,53.7484716666667,-98.0789733333333,17.5,23.8,53,983.37,13.0,96,19.23,0.1,1009.84,185.3
2018-08-13 10:30,53.748495,-98.078955,16.7,22.2,57,983.14,12.8,97,19.24,0.0,1009.62,185.3
2018-08-13 10:40,53.7485516666667,-98.07905,16.2,22.8,58,983.19,12.6,97,19.27,0.0,1009.68,185.3
2018-08-13 10:50,53.74856,-98.07902,17.3,24.0,54,982.86,12.7,98,19.32,0.0,1009.36,185.3
2018-08-13 11:00,53.74853,-98.0790016666667,18.1,24.8,53,982.47,12.7,98,19.40,0.0,1008.95,279.5
2018-08-13 11:10,53.7484933333333,-98.07895,17.9,23.7,56,982.46,12.7,98,19.44,0.0,1008.93,279.5
2018-08-13 11:20,53.7485,-98.078955,16.3,21.7,54,982.68,12.7,99,19.45,0.0,1009.14,279.5
2018-08-13 11:30,53.7484833333333,-98.0789383333333,16.5,22.4,56,982.56,12.8,99,19.45,0.0,1009.02,279.5
2018-08-13 11:40,53.7484933333333,-98.0789416666667,16.2,20.9,58,982.49,12.7,99,19.44,0.0,1008.95,279.5
2018-08-13 11:50,53.74849,-98.0789616666667,15.8,22.2,58,982.50,12.8,99,19.44,0.0,1008.96,279.5
2018-08-13 12:00,53.7484516666667,-98.0789466666667,16.6,20.9,53,982.43,12.9,99,19.44,0.0,1008.87,149.3
2018-08-13 12:10,53.7484966666667,-98.079005,18.8,25.3,54,982.38,12.8,99,19.45,0.0,1008.83,149.3
2018-08-13 12:20,53.748535,-98.0790416666667,18.7,23.5,50,982.45,12.8,99,19.43,0.0,1008.90,149.3
2018-08-13 12:30,53.7484183333333,-98.078935,21.2,26.3,49,982.09,12.8,99,19.42,0.0,1008.54,149.3
2018-08-13 12:40,53.74853,-98.0790533333333,21.4,27.2,51,981.80,12.9,99,19.41,0.0,1008.24,149.3
2018-08-13 12:50,53.7484333333333,-98.0788933333333,21.6,28.5,48,981.57,12.9,99,19.39,0.0,1008.01,149.3
2018-08-13 13:00,53.7485233333333,-98.0790216666667,20.3,29.3,51,981.81,12.9,99,19.37,0.0,1008.25,320.8
2018-08-13 13:10,53.74849,-98.0789766666667,17.2,24.1,54,982.18,12.7,99,19.34,0.0,1008.63,320.8
2018-08-13 13:20,53.7485516666667,-98.079055,18.9,24.1,55,981.78,12.6,99,19.34,0.0,1008.22,320.8
2018-08-13 13:30,53.748555,-98.07907,18.7,25.9,53,981.56,12.7,99,19.32,0.0,1008.00,320.8
2018-08-13 13:40,53.7485416666667,-98.0790116666667,16.1,22.8,55,981.75,12.6,99,19.31,0.0,1008.20,320.8
2018-08-13 13:50,53.74849,-98.079,14.7,23.7,57,982.00,12.5,99,19.30,0.0,1008.45,320.8
2018-08-13 14:00,53.748525,-98.0790183333333,17.5,24.1,57,981.47,12.6,99,19.29,0.0,1007.91,236.9
2018-08-13 14:10,53.748495,-98.079005,16.0,24.8,62,981.38,12.5,99,19.27,0.0,1007.82,236.9
2018-08-13 14:20,53.74859,-98.0790666666667,18.2,27.7,67,981.20,12.5,99,19.24,0.0,1007.64,236.9
2018-08-13 14:30,53.7485583333333,-98.0790483333333,18.8,25.9,63,981.15,12.5,99,19.22,0.0,1007.58,236.9
2018-08-13 14:40,53.7485416666667,-98.0790216666667,13.2,18.0,56,981.90,12.5,99,19.21,0.0,1008.35,236.9
2018-08-13 14:50,53.748585,-98.0790066666667,13.5,20.6,59,982.01,12.5,99,19.18,0.0,1008.46,236.9
2018-08-13 15:00,53.74858,-98.0790333333333,13.0,19.1,54,981.97,12.6,99,19.16,0.0,1008.43,339.9
2018-08-13 15:10,53.7484816666667,-98.078965,12.3,17.9,49,981.95,12.6,99,19.14,0.0,1008.41,339.9
2018-08-13 15:20,53.7485633333333,-98.078965,11.4,15.2,51,982.21,12.5,99,19.13,0.0,1008.68,339.9
2018-08-13 15:30,53.7485866666667,-98.0789366666667,11.6,15.9,45,982.50,12.4,99,19.08,0.0,1008.99,339.9
2018-08-13 15:40,53.7486733333333,-98.078885,10.8,15.0,47,982.63,12.4,99,19.03,0.0,1009.12,339.9
2018-08-13 15:50,53.748725,-98.0786916666667,10.3,15.2,37,982.63,12.5,100,19.00,0.0,1009.12,339.9
2018-08-13 16:00,53.7486483333333,-98.0782366666667,8.6,12.6,33,982.61,12.3,100,18.95,0.1,1009.10,75.4
2018-08-13 16:10,53.7486516666667,-98.07823,10.1,13.5,42,982.45,12.1,100,18.93,0.0,1008.95,75.4
2018-08-13 16:20,53.748735,-98.0783183333333,11.2,15.5,41,982.41,12.2,100,18.91,0.0,1008.91,75.4
2018-08-13 16:30,53.74869,-98.0780916666667,8.1,12.2,26,982.50,12.6,100,18.90,0.0,1008.98,75.4
2018-08-13 16:40,53.7486966666667,-98.0782433333333,7.5,11.8,32,982.66,13.0,100,18.90,0.0,1009.12,75.4
2018-08-13 16:50,53.7486916666667,-98.0782116666667,7.8,10.8,33,982.71,13.2,100,18.89,0.0,1009.17,75.4
2018-08-13 17:00,53.7487066666667,-98.0781983333333,6.6,9.4,30,982.66,13.2,100,18.89,0.0,1009.12,69.6
2018-08-13 17:10,53.748655,-98.0782383333333,7.3,12.7,30,982.70,13.2,100,18.88,0.0,1009.16,69.6
2018-08-13 17:20,53.74859,-98.0781916666667,9.5,14.3,33,982.80,12.8,100,18.87,0.0,1009.28,69.6
2018-08-13 17:30,53.7483716666667,-98.0783633333333,10.8,15.3,31,982.78,12.4,100,18.86,0.1,1009.28,69.6
2018-08-13 17:40,53.7483466666667,-98.0786733333333,10.5,14.4,36,982.62,12.3,100,18.85,0.1,1009.12,69.6
2018-08-13 17:50,53.748365,-98.0786966666667,9.5,13.8,35,982.51,12.2,100,18.85,0.0,1009.02,69.6
2018-08-13 18:00,53.74839,-98.078835,10.3,14.6,36,982.57,12.2,99,18.85,0.0,1009.09,146.6
2018-08-13 18:10,53.7483333333333,-98.0786366666667,9.2,13.0,27,982.76,12.2,99,18.85,0.0,1009.28,146.6
2018-08-13 18:20,53.748365,-98.078685,9.1,13.1,28,982.99,12.2,99,18.84,0.0,1009.49,146.6
2018-08-13 18:30,53.7483683333333,-98.078745,9.2,13.1,33,982.99,12.2,99,18.83,0.0,1009.48,146.6
2018-08-13 18:40,53.7483616666667,-98.07879,10.8,14.2,31,982.83,12.1,99,18.83,0.0,1009.31,146.6
2018-08-13 18:50,53.7484216666667,-98.0788783333333,11.4,16.7,37,982.56,12.1,99,18.83,0.0,1009.03,146.6
2018-08-13 19:00,53.7483383333333,-98.0786633333333,10.1,14.2,30,982.67,12.1,100,18.84,0.1,1009.15,220.8
2018-08-13 19:10,53.748345,-98.0787083333333,9.4,13.0,30,982.99,12.2,99,18.83,0.0,1009.49,220.8
2018-08-13 19:20,53.7483233333333,-98.0786466666667,10.0,17.4,29,983.22,12.3,99,18.84,0.0,1009.73,220.8
2018-08-13 19:30,53.748325,-98.07859,9.5,14.7,27,983.43,12.4,99,18.84,0.0,1009.96,220.8
2018-08-13 19:40,53.7483316666667,-98.078535,7.6,10.8,18,983.77,12.5,99,18.83,0.0,1010.30,220.8
2018-08-13 19:50,53.74834,-98.078595,8.8,14.0,20,983.76,12.3,99,18.82,0.0,1010.30,220.8
2018-08-13 20:00,53.7483466666667,-98.078605,9.6,14.5,14,983.83,12.1,100,18.83,0.0,1010.39,213.7
2018-08-13 20:10,53.74833,-98.0785633333333,10.0,14.5,22,983.89,12.1,100,18.83,0.0,1010.45,213.7
2018-08-13 20:20,53.7483566666667,-98.0786916666667,11.5,18.1,30,983.91,12.2,100,18.82,0.0,1010.47,213.7
2018-08-13 20:30,53.7483916666667,-98.07883,11.2,15.4,33,984.07,12.2,100,18.82,0.0,1010.63,213.7
2018-08-13 20:40,53.7483116666667,-98.078345,11.6,16.1,16,984.08,12.2,100,18.81,0.1,1010.64,213.7
2018-08-13 20:50,53.7483066666667,-98.07856,13.8,19.6,12,984.00,11.7,100,18.80,0.0,1010.58,213.7
2018-08-13 21:00,53.7483266666667,-98.0785266666667,14.6,21.1,17,984.11,11.7,100,18.79,0.0,1010.69,111.5
2018-08-13 21:10,53.7483266666667,-98.0785933333333,16.2,25.6,22,984.13,11.9,99,18.79,0.0,1010.70,111.5
2018-08-13 21:20,53.7483366666667,-98.0786533333333,14.5,19.9,18,984.39,11.8,99,18.79,0.0,1010.97,111.5
2018-08-13 21:30,53.748305,-98.0783983333333,12.1,19.9,7,984.66,11.6,100,18.78,0.1,1011.25,111.5
2018-08-13 21:40,53.7483066666667,-98.0783766666667,13.9,21.7,4,984.84,10.9,100,18.78,0.0,1011.47,111.5
2018-08-13 21:50,53.7483,-98.0785,13.0,19.8,7,985.00,10.7,100,18.77,0.0,1011.66,111.5
2018-08-13 22:00,53.7482,-98.0786666666667,16.5,24.3,19,985.07,10.7,100,18.79,0.1,1011.72,360.0
2018-08-13 22:10,53.7482466666667,-98.078795,15.4,23.0,20,985.29,10.8,100,18.80,0.0,1011.95,360.0
2018-08-13 22:20,53.74821,-98.0787483333333,15.9,27.0,16,985.52,10.7,99,18.81,0.0,1012.18,360.0
2018-08-13 22:30,53.7482516666667,-98.0788383333333,13.5,20.5,17,985.87,10.7,99,18.81,0.0,1012.55,360.0
2018-08-13 22:40,53.748275,-98.0789033333333,15.1,23.5,23,985.94,10.7,99,18.82,0.0,1012.63,360.0
2018-08-13 22:50,53.7482616666667,-98.0788666666667,15.5,21.4,26,986.03,10.8,99,18.80,0.0,1012.73,360.0
2018-08-13 23:00,53.7482633333333,-98.0789083333333,18.3,25.8,29,986.08,10.8,98,18.53,0.0,1012.77,243.7
2018-08-13 23:10,53.7482866666667,-98.0789416666667,16.9,26.3,31,986.15,10.8,97,18.28,0.0,1012.85,243.7
2018-08-13 23:20,53.7482883333333,-98.078935,15.5,23.9,29,986.24,10.9,97,18.06,0.0,1012.95,243.7
2018-08-13 23:30,53.74828,-98.078915,15.9,24.5,36,986.44,10.9,94,17.85,0.0,1013.18,243.7
2018-08-13 23:40,53.74829,-98.07892,18.9,27.7,39,986.34,10.9,94,17.69,0.0,1013.09,243.7
2018-08-13 23:50,53.7482916666667,-98.0789616666667,17.7,26.8,39,986.56,10.8,93,17.62,0.0,1013.32,243.7
